This is the latest recevied weather packets stored in our database for station/object AG1T-20. If no packets are shown the sender has not sent any weather packets the latest 10 day(s).
| Time | Temp. | Humidity | Pressure | Rain* | Wind** | Luminosity | Snow |
|---|---|---|---|---|---|---|---|
| 1787791204 | 34.44° C | 21% | 1021 hPa | 0 mm | - | 56 W/m² | - |
| 1787790604 | 33.33° C | 22% | 1021 hPa | 0 mm | - | 75 W/m² | - |
| 1787790004 | 35.56° C | 20% | 1021 hPa | 0 mm | - | 95 W/m² | - |
| 1787789404 | 34.44° C | 20% | 1021 hPa | 0 mm | - | 122 W/m² | - |
| 1787788805 | 35° C | 19% | 1021 hPa | 0 mm | - | 202 W/m² | - |
| 1787788205 | 34.44° C | 22% | 1021.4 hPa | 0 mm | - | 187 W/m² | - |
| 1787787604 | 35.56° C | 20% | 1021.4 hPa | 0 mm | - | 206 W/m² | - |
| 1787787004 | 35.56° C | 20% | 1021.4 hPa | 0 mm | - | 236 W/m² | - |
| 1787786405 | 34.44° C | 21% | 1021.4 hPa | 0 mm | - | 277 W/m² | - |
| 1787785804 | 33.33° C | 21% | 1021.4 hPa | 0 mm | - | 232 W/m² | - |
| 1787785204 | 35° C | 19% | 1021.4 hPa | 0 mm | - | 258 W/m² | - |
| 1787784604 | 34.44° C | 19% | 1022 hPa | 0 mm | - | 286 W/m² | - |
| 1787784005 | 34.44° C | 22% | 1022 hPa | 0 mm | - | 313 W/m² | - |
| 1787783404 | 33.89° C | 24% | 1022 hPa | 0 mm | - | 308 W/m² | - |
| 1787782804 | 32.78° C | 26% | 1022 hPa | 0 mm | - | 327 W/m² | - |
| 1787782204 | 33.89° C | 27% | 1022 hPa | 0 mm | - | 245 W/m² | - |
| 1787781604 | 33.89° C | 24% | 1022 hPa | 0 mm | - | 480 W/m² | - |
| 1787781004 | 32.78° C | 26% | 1022.7 hPa | 0 mm | - | 501 W/m² | - |
| 1787780404 | 32.22° C | 27% | 1022.7 hPa | 0 mm | - | 520 W/m² | - |
| 1787779804 | 31.67° C | 29% | 1022.7 hPa | 0 mm | - | 551 W/m² | - |
| 1787779205 | 32.22° C | 29% | 1022.7 hPa | 0 mm | - | 579 W/m² | - |
| 1787778604 | 30.56° C | 28% | 1022.7 hPa | 0 mm | - | 606 W/m² | - |
| 1787778004 | 31.11° C | 30% | 1022.7 hPa | 0 mm | - | 453 W/m² | - |
| 1787777405 | 30.56° C | 30% | 1023.6 hPa | 0 mm | - | 673 W/m² | - |
| 1787776805 | 30° C | 29% | 1023.6 hPa | 0 mm | - | 635 W/m² | - |
* Rain latest hour (hover to see other rain measurements)
** Current wind speed in m/s (hover to see current wind gust speed)